| time (UTC) | temp F | wind direction | speed MPH | gust MPH | rain 1hr in | rain 24hr in | rain mn in | humidity % | barometer mb |
| 20260905101421 | 84 | 111 | 0.0 | 0.0 | 0.00 | 0.00 | 0.00 | 49 | 1015.9 |
| 20260905100421 | 83 | 111 | 0.0 | 0.0 | 0.00 | 0.00 | 0.00 | 50 | 415.0 |
| 20260905095412 | 83 | 111 | 0.0 | 0.0 | 0.00 | 0.00 | 0.00 | 49 | 1103.8 |
| 20260905094854 | 83 | 111 | 0.0 | 0.0 | 0.00 | 0.00 | 0.00 | 49 | 626.7 |
| 20260905093411 | 83 | 111 | 0.0 | 2.0 | 0.00 | 0.00 | 0.00 | 51 | 825.1 |
| 20260905092840 | 83 | 111 | 1.0 | 3.0 | 0.00 | 0.00 | 0.00 | 50 | 733.1 |
| 20260905091406 | 82 | 111 | 0.0 | 4.0 | 0.00 | 0.00 | 0.00 | 51 | 790.2 |
| 20260905090406 | 82 | 111 | 0.0 | 4.0 | 0.00 | 0.00 | 0.00 | 51 | 508.1 |
| 20260905085401 | 83 | 111 | 0.0 | 3.0 | 0.00 | 0.00 | 0.00 | 52 | 675.8 |
| 20260905084358 | 83 | 111 | 0.0 | 0.0 | 0.00 | 0.00 | 0.00 | 52 | 438.0 |
| 20260905083359 | 83 | 111 | 0.0 | 0.0 | 0.00 | 0.00 | 0.00 | 55 | 1186.2 |
| 20260905082356 | 82 | 111 | 1.0 | 7.0 | 0.00 | 0.00 | 0.00 | 54 | 672.3 |
| 20260905081354 | 83 | 109 | 0.0 | 3.0 | 0.00 | 0.00 | 0.00 | 56 | 1001.7 |
| 20260905080356 | 81 | 109 | 0.0 | 3.0 | 0.00 | 0.00 | 0.00 | 57 | 905.6 |
| 20260905075349 | 80 | 109 | 2.0 | 6.0 | 0.00 | 0.00 | 0.00 | 59 | 725.2 |
| 20260905074348 | 80 | 101 | 1.0 | 4.0 | 0.00 | 0.00 | 0.00 | 63 | 639.2 |
| 20260905073350 | 79 | 102 | 1.0 | 6.0 | 0.00 | 0.00 | 0.00 | 65 | 434.5 |
| 20260905072344 | 78 | 102 | 1.0 | 4.0 | 0.00 | 0.00 | 0.00 | 69 | 576.7 |
| 20260905071344 | 77 | 113 | 1.0 | 6.0 | 0.00 | 0.00 | 0.00 | 72 | 1109.0 |
| 20260905070823 | 76 | 116 | 0.0 | 6.0 | 0.00 | 0.00 | 0.00 | 74 | 534.8 |
| 20260905065340 | 75 | 118 | 0.0 | 3.0 | 0.00 | 0.00 | 0.00 | 75 | 902.2 |
| 20260905064340 | 75 | 118 | 0.0 | 1.0 | 0.00 | 0.00 | 0.00 | 75 | 760.8 |
| 20260905063817 | 75 | 118 | 0.0 | 4.0 | 0.00 | 0.00 | 0.00 | 76 | 1241.5 |
| 20260905062334 | 75 | 118 | 0.0 | 3.0 | 0.00 | 0.00 | 0.00 | 76 | 715.0 |
| 20260905061331 | 74 | 118 | 0.0 | 2.0 | 0.00 | 0.00 | 0.00 | 77 | 628.0 |
| 20260905060332 | 73 | 118 | 1.0 | 4.0 | 0.00 | 0.00 | 0.00 | 78 | 488.6 |
| 20260905055334 | 72 | 118 | 1.0 | 6.0 | 0.00 | 0.00 | 0.00 | 80 | 586.0 |
| 20260905054331 | 71 | 134 | 0.0 | 0.0 | 0.00 | 0.00 | 0.00 | 81 | 1011.0 |
| 20260905053334 | 71 | 134 | 0.0 | 1.0 | 0.00 | 0.00 | 0.00 | 81 | 612.6 |
| 20260905052330 | 71 | 134 | 0.0 | 0.0 | 0.00 | 0.00 | 0.00 | 82 | 501.5 |
| 20260905051331 | 70 | 134 | 0.0 | 0.0 | 0.00 | 0.00 | 0.00 | 83 | 452.3 |
| 20260905050327 | 70 | 134 | 0.0 | 0.0 | 0.00 | 0.00 | 0.00 | 83 | 740.3 |
| 20260905045325 | 70 | 134 | 0.0 | 0.0 | 0.00 | 0.00 | 0.00 | 83 | 542.9 |
| 20260905044326 | 70 | 134 | 0.0 | 0.0 | 0.00 | 0.00 | 0.00 | 83 | 577.1 |
| 20260905043322 | 70 | 134 | 1.0 | 3.0 | 0.00 | 0.00 | 0.00 | 83 | 1145.6 |
| 20260905042321 | 70 | 134 | 0.0 | 0.0 | 0.00 | 0.00 | 0.00 | 83 | 497.0 |
| 20260905041321 | 70 | 134 | 0.0 | 0.0 | 0.00 | 0.00 | 0.00 | 83 | 478.9 |
| 20260905040321 | 69 | 134 | 0.0 | 0.0 | 0.00 | 0.00 | 0.00 | 83 | 464.6 |
| 20260905035321 | 70 | 134 | 0.0 | 0.0 | 0.00 | 0.00 | 0.00 | 83 | 476.5 |
| 20260905034318 | 70 | 134 | 0.0 | 0.0 | 0.00 | 0.00 | 0.00 | 82 | 465.4 |
| 20260905033320 | 71 | 134 | 0.0 | 0.0 | 0.00 | 0.00 | 0.00 | 81 | 660.1 |
| 20260905032757 | 71 | 134 | 0.0 | 0.0 | 0.00 | 0.00 | 0.00 | 81 | 601.5 |
| 20260905031313 | 71 | 134 | 0.0 | 0.0 | 0.00 | 0.00 | 0.00 | 81 | 448.7 |
| 20260905030317 | 71 | 134 | 0.0 | 3.0 | 0.00 | 0.00 | 0.00 | 80 | 706.6 |
| 20260905025743 | 71 | 139 | 0.0 | 1.0 | 0.00 | 0.00 | 0.00 | 80 | 758.4 |
| 20260905024304 | 71 | 139 | 0.0 | 0.0 | 0.00 | 0.00 | 0.00 | 80 | 454.5 |
| 20260905023746 | 71 | 139 | 0.0 | 0.0 | 0.00 | 0.00 | 0.00 | 79 | 581.0 |
| 20260905022756 | 71 | 139 | 0.0 | 0.0 | 0.00 | 0.00 | 0.00 | 78 | 840.9 |
| 20260905021305 | 71 | 139 | 0.0 | 0.0 | 0.00 | 0.00 | 0.00 | 78 | 456.0 |
| 20260905020738 | 71 | 139 | 0.0 | 0.0 | 0.00 | 0.00 | 0.00 | 77 | 664.2 |
| 20260905015306 | 71 | 139 | 0.0 | 0.0 | 0.00 | 0.00 | 0.00 | 77 | 462.6 |
| 20260905014300 | 71 | 139 | 0.0 | 0.0 | 0.00 | 0.00 | 0.00 | 78 | 461.2 |
| 20260905013303 | 71 | 139 | 0.0 | 2.0 | 0.00 | 0.00 | 0.00 | 77 | 467.2 |
| 20260905012254 | 71 | 139 | 0.0 | 3.0 | 0.00 | 0.00 | 0.00 | 77 | 488.2 |
| 20260905011252 | 71 | 140 | 0.0 | 3.0 | 0.00 | 0.00 | 0.00 | 78 | 473.0 |
| 20260905010251 | 71 | 143 | 0.0 | 2.0 | 0.00 | 0.00 | 0.00 | 78 | 460.1 |
| 20260905005245 | 71 | 144 | 0.0 | 0.0 | 0.00 | 0.00 | 0.00 | 77 | 543.8 |
| 20260905004244 | 72 | 144 | 0.0 | 3.0 | 0.00 | 0.00 | 0.00 | 77 | 465.6 |
| 20260905003243 | 72 | 144 | 0.0 | 3.0 | 0.00 | 0.00 | 0.00 | 77 | 523.4 |
| 20260905002711 | 72 | 144 | 0.0 | 4.0 | 0.00 | 0.00 | 0.00 | 77 | 805.1 |
| 20260905001234 | 72 | 148 | 0.0 | 3.0 | 0.00 | 0.00 | 0.00 | 77 | 507.8 |
| 20260905000233 | 72 | 148 | 0.0 | 0.0 | 0.00 | 0.00 | 0.00 | 77 | 451.2 |
| 20260904235716 | 72 | 148 | 0.0 | 0.0 | 0.00 | 0.00 | 0.00 | 77 | 474.3 |
| 20260904234231 | 72 | 148 | 0.0 | 0.0 | 0.00 | 0.00 | 0.00 | 77 | 512.0 |
| 20260904233232 | 72 | 148 | 0.0 | 0.0 | 0.00 | 0.00 | 0.00 | 76 | 450.1 |
| 20260904232224 | 73 | 148 | 0.0 | 0.0 | 0.00 | 0.00 | 0.00 | 76 | 458.6 |
| 20260904231224 | 73 | 148 | 0.0 | 5.0 | 0.00 | 0.00 | 0.00 | 75 | 530.6 |
| 20260904230224 | 73 | 157 | 0.0 | 1.0 | 0.00 | 0.00 | 0.00 | 74 | 518.7 |
| 20260904225222 | 74 | 157 | 0.0 | 1.0 | 0.00 | 0.00 | 0.00 | 74 | 555.3 |
| 20260904224703 | 74 | 157 | 0.0 | 2.0 | 0.00 | 0.00 | 0.00 | 75 | 652.0 |
| 20260904223220 | 74 | 161 | 0.0 | 0.0 | 0.00 | 0.00 | 0.00 | 75 | 768.7 |
| 20260904222211 | 74 | 163 | 0.0 | 0.0 | 0.00 | 0.00 | 0.00 | 75 | 536.4 |
| 20260904221210 | 74 | 163 | 0.0 | 3.0 | 0.00 | 0.00 | 0.00 | 74 | 472.1 |
| 20260904220646 | 74 | 182 | 0.0 | 0.0 | 0.00 | 0.00 | 0.00 | 74 | 534.9 |
| 20260904215202 | 75 | 182 | 0.0 | 0.0 | 0.00 | 0.00 | 0.00 | 74 | 1042.4 |
| 20260904214203 | 75 | 182 | 0.0 | 0.0 | 0.00 | 0.00 | 0.00 | 73 | 1224.2 |
| 20260904213202 | 76 | 182 | 0.0 | 0.0 | 0.00 | 0.00 | 0.00 | 71 | 420.9 |
| 20260904212202 | 76 | 182 | 0.0 | 0.0 | 0.00 | 0.00 | 0.00 | 70 | 501.3 |
| 20260904211203 | 76 | 182 | 0.0 | 0.0 | 0.00 | 0.00 | 0.00 | 71 | 1031.0 |
| 20260904210158 | 76 | 182 | 0.0 | 0.0 | 0.00 | 0.00 | 0.00 | 70 | 1098.7 |
| 20260904205646 | 76 | 182 | 0.0 | 0.0 | 0.00 | 0.00 | 0.00 | 71 | 503.8 |
| 20260904204637 | 77 | 182 | 0.0 | 0.0 | 0.00 | 0.00 | 0.00 | 72 | 812.3 |
| 20260904203155 | 77 | 182 | 0.0 | 0.0 | 0.00 | 0.00 | 0.00 | 70 | 420.8 |
| 20260904202154 | 78 | 182 | 0.0 | 0.0 | 0.00 | 0.00 | 0.00 | 69 | 825.4 |
| 20260904201154 | 78 | 182 | 0.0 | 0.0 | 0.00 | 0.00 | 0.00 | 69 | 571.0 |
| 20260904200154 | 78 | 182 | 0.0 | 0.0 | 0.00 | 0.00 | 0.00 | 68 | 475.9 |
| 20260904195154 | 78 | 182 | 0.0 | 0.0 | 0.00 | 0.00 | 0.00 | 68 | 579.2 |
| 20260904194154 | 78 | 182 | 0.0 | 0.0 | 0.00 | 0.00 | 0.00 | 67 | 1145.5 |
| 20260904193639 | 78 | 182 | 0.0 | 0.0 | 0.00 | 0.00 | 0.00 | 67 | 712.7 |
| 20260904192154 | 78 | 182 | 0.0 | 0.0 | 0.00 | 0.00 | 0.00 | 68 | 837.4 |
| 20260904191155 | 78 | 188 | 0.0 | 0.0 | 0.00 | 0.00 | 0.00 | 68 | 1032.3 |
| 20260904190628 | 79 | 188 | 0.0 | 0.0 | 0.00 | 0.00 | 0.00 | 67 | 861.1 |
| 20260904185151 | 79 | 188 | 0.0 | 0.0 | 0.00 | 0.00 | 0.00 | 67 | 674.8 |
| 20260904185120 | 79 | 188 | 0.0 | 0.0 | 0.00 | 0.00 | 0.00 | 66 | 876.2 |
| 20260904183150 | 80 | 188 | 0.0 | 0.0 | 0.00 | 0.00 | 0.00 | 64 | 1165.4 |
| 20260904182150 | 80 | 188 | 0.0 | 0.0 | 0.00 | 0.00 | 0.00 | 63 | 1276.8 |
| 20260904181150 | 80 | 188 | 0.0 | 0.0 | 0.00 | 0.00 | 0.00 | 62 | 1144.9 |
| 20260904180150 | 81 | 188 | 0.0 | 0.0 | 0.00 | 0.00 | 0.00 | 62 | 631.0 |
| 20260904175150 | 81 | 188 | 0.0 | 0.0 | 0.00 | 0.00 | 0.00 | 61 | 682.4 |
| 20260904174151 | 82 | 188 | 0.0 | 0.0 | 0.00 | 0.00 | 0.00 | 59 | 604.8 |
| 20260904173146 | 83 | 188 | 0.0 | 3.0 | 0.00 | 0.00 | 0.00 | 58 | 564.4 |
| 20260904172147 | 83 | 188 | 0.0 | 3.0 | 0.00 | 0.00 | 0.00 | 57 | 668.7 |
| 20260904171146 | 84 | 190 | 0.0 | 4.0 | 0.00 | 0.00 | 0.00 | 56 | 462.0 |
| 20260904170146 | 85 | 220 | 1.0 | 6.0 | 0.00 | 0.00 | 0.00 | 56 | 503.4 |
| 20260904165145 | 85 | 202 | 1.0 | 6.0 | 0.00 | 0.00 | 0.00 | 55 | 826.6 |
| 20260904164146 | 86 | 213 | 1.0 | 5.0 | 0.00 | 0.00 | 0.00 | 54 | 499.7 |
| 20260904163617 | 86 | 199 | 1.0 | 5.0 | 0.00 | 0.00 | 0.00 | 53 | 507.2 |
| 20260904162144 | 86 | 232 | 1.0 | 8.0 | 0.00 | 0.00 | 0.00 | 54 | 712.3 |
| 20260904161143 | 87 | 198 | 2.0 | 5.0 | 0.00 | 0.00 | 0.00 | 53 | 455.8 |
| 20260904160142 | 87 | 212 | 2.0 | 9.0 | 0.00 | 0.00 | 0.00 | 53 | 892.0 |
| 20260904155142 | 87 | 212 | 2.0 | 8.0 | 0.00 | 0.00 | 0.00 | 52 | 958.4 |
| 20260904154137 | 87 | 208 | 2.0 | 7.0 | 0.00 | 0.00 | 0.00 | 52 | 1272.2 |
| 20260904153615 | 88 | 180 | 1.0 | 6.0 | 0.00 | 0.00 | 0.00 | 52 | 956.6 |
| 20260904152138 | 88 | 203 | 1.0 | 8.0 | 0.00 | 0.00 | 0.00 | 50 | 746.3 |
| 20260904151137 | 88 | 207 | 2.0 | 10.0 | 0.00 | 0.00 | 0.00 | 51 | 1133.5 |
| 20260904150621 | 88 | 172 | 2.0 | 9.0 | 0.00 | 0.00 | 0.00 | 50 | 864.8 |
| 20260904145138 | 88 | 193 | 4.0 | 9.0 | 0.00 | 0.00 | 0.00 | 51 | 593.0 |
| 20260904144132 | 89 | 189 | 1.0 | 6.0 | 0.00 | 0.00 | 0.00 | 50 | 843.7 |
| 20260904143134 | 89 | 173 | 3.0 | 8.0 | 0.00 | 0.00 | 0.00 | 50 | 1199.5 |
| 20260904142132 | 89 | 168 | 0.0 | 7.0 | 0.00 | 0.00 | 0.00 | 49 | 1054.9 |
| 20260904141136 | 89 | 233 | 2.0 | 7.0 | 0.00 | 0.00 | 0.00 | 49 | 523.3 |
| 20260904140134 | 89 | 261 | 1.0 | 7.0 | 0.00 | 0.00 | 0.00 | 51 | 919.1 |
| 20260904135133 | 89 | 235 | 1.0 | 6.0 | 0.00 | 0.00 | 0.00 | 49 | 937.7 |
| 20260904134135 | 89 | 218 | 2.0 | 12.0 | 0.00 | 0.00 | 0.00 | 50 | 851.3 |
| 20260904133133 | 88 | 271 | 2.0 | 7.0 | 0.00 | 0.00 | 0.00 | 49 | 906.1 |
| 20260904132132 | 88 | 252 | 3.0 | 8.0 | 0.00 | 0.00 | 0.00 | 51 | 1292.1 |
| 20260904131132 | 88 | 250 | 4.0 | 11.0 | 0.00 | 0.00 | 0.00 | 51 | 539.5 |
| 20260904130133 | 88 | 213 | 2.0 | 8.0 | 0.00 | 0.00 | 0.00 | 50 | 969.1 |
| 20260904125133 | 88 | 240 | 4.0 | 9.0 | 0.00 | 0.00 | 0.00 | 49 | 783.6 |
| 20260904124619 | 88 | 252 | 3.0 | 9.0 | 0.00 | 0.00 | 0.00 | 51 | 1235.3 |
| 20260904123132 | 88 | 223 | 2.0 | 7.0 | 0.00 | 0.00 | 0.00 | 50 | 941.0 |
| 20260904122131 | 88 | 229 | 4.0 | 9.0 | 0.00 | 0.00 | 0.00 | 50 | 1025.5 |
| 20260904121134 | 88 | 246 | 2.0 | 7.0 | 0.00 | 0.00 | 0.00 | 50 | 1232.2 |
| 20260904120133 | 88 | 235 | 2.0 | 7.0 | 0.00 | 0.00 | 0.00 | 51 | 410.0 |
| 20260904115134 | 88 | 236 | 1.0 | 6.0 | 0.00 | 0.00 | 0.00 | 49 | 420.6 |
| 20260904114617 | 88 | 180 | 1.0 | 10.0 | 0.00 | 0.00 | 0.00 | 50 | 631.4 |
| 20260904113611 | 87 | 155 | 1.0 | 7.0 | 0.00 | 0.00 | 0.00 | 49 | 433.8 |
| 20260904112129 | 87 | 265 | 3.0 | 9.0 | 0.00 | 0.00 | 0.00 | 51 | 1114.3 |
| 20260904111123 | 87 | 181 | 1.0 | 7.0 | 0.00 | 0.00 | 0.00 | 50 | 679.3 |
| 20260904110125 | 86 | 257 | 1.0 | 8.0 | 0.00 | 0.00 | 0.00 | 50 | 528.5 |
| 20260904105124 | 87 | 198 | 2.0 | 6.0 | 0.00 | 0.00 | 0.00 | 49 | 635.2 |
| 20260904104120 | 87 | 167 | 3.0 | 9.0 | 0.00 | 0.00 | 0.00 | 48 | 565.1 |
| 20260904103119 | 87 | 135 | 1.0 | 5.0 | 0.00 | 0.00 | 0.00 | 48 | 803.7 |